{"data":{"norad_id":68453,"epoch":"2026-09-19T02:37:26.815296Z","epoch_age_seconds":189946,"freshness":"STALE","line1":"1 68453U 26067AP  26262.10933814  .00005625  00000+0  26494-3 0  9999","line2":"2 68453  97.4648 219.4660 0004200  69.2308 290.9376 15.19916663 26201","mean_motion":15.19916663,"eccentricity":0.00042,"inclination_deg":97.4648,"raan_deg":219.466,"arg_perigee_deg":69.2308,"mean_anomaly_deg":290.9376,"bstar":0.00026494,"rev_number":2620,"period_min":94.742036524406,"perigee_km":503.2008673961,"apogee_km":508.98361996079,"semimajor_km":6884.2292436784,"source":"CELESTRAK","updated_at":"2026-09-20T09:00:24.209262Z"}}